Hourly Weather Barskoe

Today, 19 April, Monday

Time Temperature Precipitation Wind Pressure Humidity
00:00 +5°C° 0 mm 3 mps 755 mmHg 80%
01:00 +5°C° 0 mm 3 mps 755 mmHg 82%
02:00 +5°C° 0 mm 4 mps 755 mmHg 84%
03:00 +5°C° 0 mm 4 mps 755 mmHg 86%
04:00 +4°C° 0 mm 4 mps 755 mmHg 87%
05:00 +4°C° 0 mm 4 mps 755 mmHg 88%
06:00 +4°C° 0 mm 4 mps 755 mmHg 88%
07:00 +4°C° 0 mm 4 mps 755 mmHg 83%
08:00 +5°C° 0 mm 4 mps 756 mmHg 77%
09:00 +6°C° 0 mm 5 mps 756 mmHg 71%
10:00 +7°C° 0 mm 5 mps 756 mmHg 65%
11:00 +8°C° 0 mm 5 mps 756 mmHg 60%
12:00 +9°C° 0 mm 5 mps 755 mmHg 54%
13:00 +9°C° 0 mm 5 mps 755 mmHg 54%
14:00 +9°C° 0 mm 5 mps 755 mmHg 54%
15:00 +9°C° 0 mm 5 mps 755 mmHg 54%
16:00 +9°C° 0 mm 5 mps 756 mmHg 54%
17:00 +8°C° 0 mm 5 mps 756 mmHg 54%
18:00 +7°C° 0 mm 5 mps 756 mmHg 54%
19:00 +7°C° 0.1 mm 5 mps 756 mmHg 54%
20:00 +6°C° 0.1 mm 5 mps 756 mmHg 54%
21:00 +5°C° 0.1 mm 4 mps 756 mmHg 54%
22:00 +4°C° 0 mm 4 mps 756 mmHg 59%
23:00 +4°C° 0 mm 4 mps 756 mmHg 64%

Tomorrow, 20 April, Tuesday

Time Temperature Precipitation Wind Pressure Humidity
00:00 +3°C° 0 mm 4 mps 756 mmHg 69%
01:00 +3°C° 0 mm 4 mps 756 mmHg 69%
02:00 +3°C° 0 mm 4 mps 756 mmHg 69%
03:00 +3°C° 0 mm 4 mps 756 mmHg 70%
04:00 +1°C° 0 mm 4 mps 755 mmHg 70%
05:00 +1°C° 0 mm 4 mps 755 mmHg 71%
06:00 +1°C° 0 mm 4 mps 755 mmHg 71%
07:00 +1°C° 0.4 mm 4 mps 755 mmHg 79%
08:00 0°C° 0.4 mm 4 mps 755 mmHg 87%
09:00 0°C° 0.4 mm 4 mps 755 mmHg 95%
10:00 0°C° 0.7 mm 4 mps 755 mmHg 95%
11:00 0°C° 0.7 mm 4 mps 755 mmHg 95%
12:00 0°C° 0.7 mm 5 mps 755 mmHg 95%
13:00 0°C° 1 mm 5 mps 754 mmHg 95%
14:00 +1°C° 1 mm 5 mps 754 mmHg 95%
15:00 +1°C° 1 mm 5 mps 753 mmHg 95%
16:00 +1°C° 1 mm 5 mps 753 mmHg 95%
17:00 +1°C° 1 mm 5 mps 752 mmHg 96%
18:00 +1°C° 1 mm 5 mps 751 mmHg 96%
19:00 +1°C° 0.5 mm 6 mps 751 mmHg 96%
20:00 +1°C° 0.5 mm 6 mps 750 mmHg 95%
21:00 +2°C° 0.5 mm 6 mps 749 mmHg 95%
22:00 +1°C° 2.5 mm 6 mps 748 mmHg 95%
23:00 0°C° 2.5 mm 7 mps 746 mmHg 96%

Day after tomorrow, 21 April, Wednesday

Time Temperature Precipitation Wind Pressure Humidity
00:00 0°C° 2.5 mm 7 mps 745 mmHg 96%
01:00 0°C° 1.6 mm 7 mps 744 mmHg 96%
02:00 0°C° 1.6 mm 7 mps 743 mmHg 95%
03:00 +2°C° 1.6 mm 7 mps 742 mmHg 95%
04:00 +2°C° 0.6 mm 7 mps 741 mmHg 94%
05:00 +3°C° 0.6 mm 7 mps 740 mmHg 93%
06:00 +4°C° 0.6 mm 7 mps 739 mmHg 92%
07:00 +3°C° 0.8 mm 7 mps 738 mmHg 93%
08:00 +3°C° 0.8 mm 7 mps 738 mmHg 94%
09:00 +2°C° 0.8 mm 7 mps 738 mmHg 95%
10:00 +2°C° 0.2 mm 7 mps 739 mmHg 95%
11:00 0°C° 0.2 mm 7 mps 739 mmHg 95%
12:00 0°C° 0.2 mm 7 mps 740 mmHg 95%
13:00 0°C° 0.1 mm 7 mps 742 mmHg 94%
14:00 +1°C° 0.1 mm 6 mps 743 mmHg 93%
15:00 +2°C° 0.1 mm 6 mps 744 mmHg 92%
16:00 +2°C° 0 mm 5 mps 745 mmHg 91%
17:00 +2°C° 0 mm 5 mps 746 mmHg 89%
18:00 +2°C° 0 mm 5 mps 747 mmHg 88%
19:00 +3°C° 0 mm 4 mps 747 mmHg 88%
20:00 +3°C° 0 mm 4 mps 748 mmHg 88%
21:00 +3°C° 0 mm 3 mps 748 mmHg 88%
22:00 +3°C° 0 mm 3 mps 749 mmHg 89%
23:00 +3°C° 0 mm 3 mps 749 mmHg 90%

22 April, Thursday

Time Temperature Precipitation Wind Pressure Humidity
00:00 +3°C° 0 mm 3 mps 749 mmHg 91%
01:00 +3°C° 0 mm 3 mps 749 mmHg 91%
02:00 +3°C° 0 mm 3 mps 749 mmHg 91%
03:00 +3°C° 0 mm 3 mps 750 mmHg 92%
04:00 +3°C° 0 mm 3 mps 750 mmHg 92%
05:00 +3°C° 0 mm 3 mps 750 mmHg 93%
06:00 +2°C° 0 mm 3 mps 750 mmHg 94%
07:00 +4°C° 0 mm 3 mps 750 mmHg 88%
08:00 +6°C° 0 mm 4 mps 750 mmHg 82%
09:00 +7°C° 0 mm 4 mps 751 mmHg 76%
10:00 +7°C° 0.6 mm 4 mps 751 mmHg 79%
11:00 +7°C° 0.6 mm 4 mps 751 mmHg 82%
12:00 +7°C° 0.6 mm 4 mps 751 mmHg 85%
13:00 +8°C° 0.2 mm 4 mps 752 mmHg 79%
14:00 +11°C° 0.2 mm 4 mps 752 mmHg 74%
15:00 +12°C° 0.2 mm 4 mps 752 mmHg 68%
16:00 +12°C° 0.3 mm 4 mps 752 mmHg 71%
17:00 +11°C° 0.3 mm 3 mps 752 mmHg 75%
18:00 +11°C° 0.3 mm 3 mps 752 mmHg 78%
19:00 +10°C° 0.1 mm 2 mps 752 mmHg 83%
20:00 +9°C° 0.1 mm 2 mps 753 mmHg 88%
21:00 +8°C° 0.1 mm 2 mps 753 mmHg 93%
22:00 +7°C° 0.3 mm 2 mps 753 mmHg 93%
23:00 +7°C° 0.3 mm 2 mps 753 mmHg 93%

23 April, Friday

Time Temperature Precipitation Wind Pressure Humidity
00:00 +7°C° 0.3 mm 2 mps 753 mmHg 94%
01:00 +7°C° 0 mm 2 mps 753 mmHg 93%
02:00 +6°C° 0 mm 2 mps 753 mmHg 93%
03:00 +6°C° 0 mm 2 mps 753 mmHg 93%
04:00 +6°C° 0 mm 2 mps 753 mmHg 93%
05:00 +6°C° 0 mm 2 mps 753 mmHg 93%
06:00 +6°C° 0 mm 2 mps 753 mmHg 93%
07:00 +8°C° 0 mm 2 mps 753 mmHg 86%
08:00 +10°C° 0 mm 3 mps 753 mmHg 79%
09:00 +12°C° 0 mm 3 mps 753 mmHg 72%
10:00 +13°C° 0.2 mm 3 mps 753 mmHg 66%
11:00 +14°C° 0.2 mm 4 mps 753 mmHg 61%
12:00 +17°C° 0.2 mm 4 mps 753 mmHg 55%
13:00 +17°C° 0.1 mm 4 mps 752 mmHg 51%
14:00 +17°C° 0.1 mm 3 mps 752 mmHg 48%
15:00 +18°C° 0.1 mm 3 mps 752 mmHg 44%
16:00 +17°C° 0 mm 3 mps 752 mmHg 50%
17:00 +16°C° 0 mm 3 mps 751 mmHg 56%
18:00 +15°C° 0 mm 2 mps 751 mmHg 63%
19:00 +13°C° 0.1 mm 3 mps 751 mmHg 67%
20:00 +12°C° 0.1 mm 3 mps 751 mmHg 72%
21:00 +11°C° 0.1 mm 3 mps 751 mmHg 77%
22:00 +10°C° 0 mm 3 mps 751 mmHg 80%
23:00 +10°C° 0 mm 3 mps 750 mmHg 82%

24 April, Saturday

Time Temperature Precipitation Wind Pressure Humidity
00:00 +9°C° 0 mm 3 mps 750 mmHg 85%
01:00 +8°C° 0 mm 3 mps 750 mmHg 87%
02:00 +8°C° 0 mm 3 mps 750 mmHg 89%
03:00 +8°C° 0 mm 3 mps 749 mmHg 91%
04:00 +7°C° 0 mm 3 mps 749 mmHg 91%
05:00 +7°C° 0 mm 3 mps 749 mmHg 92%
06:00 +7°C° 0 mm 3 mps 749 mmHg 92%
07:00 +9°C° 0 mm 3 mps 749 mmHg 84%
08:00 +11°C° 0 mm 4 mps 749 mmHg 77%
09:00 +12°C° 0 mm 5 mps 748 mmHg 69%
10:00 +13°C° 0.4 mm 5 mps 748 mmHg 67%
11:00 +14°C° 0.4 mm 5 mps 748 mmHg 64%
12:00 +14°C° 0.4 mm 5 mps 748 mmHg 62%
13:00 +12°C° 0.8 mm 5 mps 749 mmHg 70%
14:00 +10°C° 0.8 mm 4 mps 749 mmHg 78%
15:00 +6°C° 0.8 mm 4 mps 750 mmHg 86%
16:00 +7°C° 0 mm 3 mps 750 mmHg 83%
17:00 +7°C° 0 mm 3 mps 750 mmHg 79%
18:00 +7°C° 0 mm 2 mps 750 mmHg 75%
19:00 +6°C° 0 mm 2 mps 751 mmHg 80%
20:00 +5°C° 0 mm 2 mps 751 mmHg 84%
21:00 +5°C° 0 mm 2 mps 751 mmHg 88%
22:00 +5°C° 0 mm 1 mps 751 mmHg 88%
23:00 +5°C° 0 mm 1 mps 751 mmHg 88%
Show more